Time,TemperatureF,DewpointF,PressureIn,WindDirection,WindDirectionDegrees,WindSpeedMPH,WindSpeedGustMPH,Humidity,HourlyPrecipIn,Conditions,Clouds,dailyrainin,SoftwareType,DateUTC
2013-07-09 00:00:00,71.3,66.9,30.10,North,0,0.0,0.0,86,0.00,,,0.00,WUHU216HW,2013-07-09 04:00:00,
2013-07-09 00:01:00,71.3,66.9,30.10,North,0,0.0,0.0,86,0.00,,,0.00,WUHU216HW,2013-07-09 04:01:00,
2013-07-09 00:06:00,71.3,66.9,30.10,North,0,0.0,0.0,86,0.00,,,0.00,WUHU216HW,2013-07-09 04:06:00,
2013-07-09 00:11:00,71.3,66.9,30.10,North,0,0.0,0.0,86,0.00,,,0.00,WUHU216HW,2013-07-09 04:11:00,
2013-07-09 00:16:00,71.3,66.9,30.10,North,0,0.0,0.0,86,0.00,,,0.00,WUHU216HW,2013-07-09 04:16:00,
2013-07-09 00:21:00,71.3,66.5,30.09,North,0,0.0,0.0,85,0.00,,,0.00,WUHU216HW,2013-07-09 04:21:00,
2013-07-09 00:26:00,71.3,66.9,30.09,North,0,0.0,0.0,86,0.00,,,0.00,WUHU216HW,2013-07-09 04:26:00,
2013-07-09 00:31:00,71.3,66.9,30.09,North,0,0.0,0.0,86,0.00,,,0.00,WUHU216HW,2013-07-09 04:31:00,
2013-07-09 00:36:00,71.5,67.4,30.09,North,0,0.0,0.0,87,0.00,,,0.00,WUHU216HW,2013-07-09 04:36:00,
2013-07-09 00:41:00,71.5,67.1,30.09,North,0,0.0,0.0,86,0.00,,,0.00,WUHU216HW,2013-07-09 04:41:00,
2013-07-09 00:46:00,71.6,67.2,30.08,North,0,0.0,0.0,86,0.00,,,0.00,WUHU216HW,2013-07-09 04:46:00,
2013-07-09 00:51:00,71.5,67.1,30.08,North,0,0.0,0.0,86,0.00,,,0.00,WUHU216HW,2013-07-09 04:51:00,
2013-07-09 00:56:00,71.5,67.1,30.08,North,0,0.0,0.0,86,0.00,,,0.00,WUHU216HW,2013-07-09 04:56:00,
2013-07-09 01:01:00,71.3,66.9,30.08,North,0,0.0,0.0,86,0.00,,,0.00,WUHU216HW,2013-07-09 05:01:00,
2013-07-09 01:06:00,71.3,66.9,30.08,North,0,0.0,0.0,86,0.00,,,0.00,WUHU216HW,2013-07-09 05:06:00,
2013-07-09 01:11:00,71.3,66.9,30.08,North,0,0.0,0.0,86,0.00,,,0.00,WUHU216HW,2013-07-09 05:11:00,
2013-07-09 01:16:00,71.3,67.2,30.08,North,0,0.0,0.0,87,0.00,,,0.00,WUHU216HW,2013-07-09 05:16:00,
2013-07-09 01:21:00,71.3,67.2,30.08,North,0,0.0,0.0,87,0.00,,,0.00,WUHU216HW,2013-07-09 05:21:00,
2013-07-09 01:26:00,71.3,67.2,30.08,North,0,0.0,0.0,87,0.00,,,0.00,WUHU216HW,2013-07-09 05:26:00,
2013-07-09 01:31:00,71.3,67.2,30.08,North,0,0.0,0.0,87,0.00,,,0.00,WUHU216HW,2013-07-09 05:31:00,
2013-07-09 01:36:00,71.3,67.2,30.08,North,0,0.0,0.0,87,0.00,,,0.00,WUHU216HW,2013-07-09 05:36:00,
2013-07-09 01:41:00,71.3,67.2,30.09,North,0,0.0,0.0,87,0.00,,,0.00,WUHU216HW,2013-07-09 05:41:00,
2013-07-09 01:46:00,71.3,67.5,30.09,North,0,0.0,0.0,88,0.01,,,0.01,WUHU216HW,2013-07-09 05:46:00,
2013-07-09 01:51:00,71.5,67.7,30.08,North,0,0.0,0.0,88,0.01,,,0.01,WUHU216HW,2013-07-09 05:51:00,
2013-07-09 01:56:00,71.5,67.4,30.08,North,0,0.0,0.0,87,0.02,,,0.01,WUHU216HW,2013-07-09 05:56:00,
2013-07-09 02:01:00,71.5,67.4,30.08,North,0,0.0,0.0,87,0.02,,,0.02,WUHU216HW,2013-07-09 06:01:00,
2013-07-09 02:06:00,71.5,67.4,30.08,North,0,0.0,0.0,87,0.03,,,0.02,WUHU216HW,2013-07-09 06:06:00,
2013-07-09 02:11:00,71.3,67.5,30.08,North,0,0.0,0.0,88,0.03,,,0.03,WUHU216HW,2013-07-09 06:11:00,
2013-07-09 02:16:00,71.3,67.9,30.08,North,0,0.0,0.0,89,0.03,,,0.03,WUHU216HW,2013-07-09 06:16:00,
2013-07-09 02:21:00,71.1,67.7,30.08,North,0,0.0,0.0,89,0.03,,,0.03,WUHU216HW,2013-07-09 06:21:00,
2013-07-09 02:26:00,71.1,67.3,30.08,North,0,0.0,0.0,88,0.03,,,0.03,WUHU216HW,2013-07-09 06:26:00,
2013-07-09 02:31:00,71.1,67.3,30.08,North,0,0.0,0.0,88,0.03,,,0.03,WUHU216HW,2013-07-09 06:31:00,
2013-07-09 02:36:00,70.9,67.1,30.07,North,0,0.0,0.0,88,0.03,,,0.03,WUHU216HW,2013-07-09 06:36:00,
2013-07-09 02:41:00,70.9,67.1,30.07,North,0,0.0,0.0,88,0.02,,,0.03,WUHU216HW,2013-07-09 06:41:00,
2013-07-09 02:46:00,70.9,67.1,30.07,North,0,0.0,0.0,88,0.02,,,0.03,WUHU216HW,2013-07-09 06:46:00,
2013-07-09 02:51:00,70.9,67.5,30.07,North,0,0.0,0.0,89,0.02,,,0.03,WUHU216HW,2013-07-09 06:51:00,
2013-07-09 02:56:00,70.9,67.5,30.07,North,0,0.0,0.0,89,0.01,,,0.03,WUHU216HW,2013-07-09 06:56:00,
2013-07-09 03:01:00,70.9,67.5,30.07,North,0,0.0,0.0,89,0.01,,,0.03,WUHU216HW,2013-07-09 07:01:00,
2013-07-09 03:06:00,71.3,68.2,30.07,North,0,0.0,0.0,90,0.00,,,0.03,WUHU216HW,2013-07-09 07:06:00,
2013-07-09 03:11:00,71.3,68.2,30.06,North,0,0.0,0.0,90,0.00,,,0.03,WUHU216HW,2013-07-09 07:11:00,
2013-07-09 03:16:00,71.3,68.2,30.06,North,0,0.0,0.0,90,0.00,,,0.03,WUHU216HW,2013-07-09 07:16:00,
2013-07-09 03:21:00,71.3,68.2,30.07,North,0,0.0,0.0,90,0.00,,,0.03,WUHU216HW,2013-07-09 07:21:00,
2013-07-09 03:26:00,71.1,68.0,30.06,North,0,0.0,0.0,90,0.00,,,0.03,WUHU216HW,2013-07-09 07:26:00,
2013-07-09 03:31:00,71.1,68.0,30.06,North,0,0.0,0.0,90,0.00,,,0.03,WUHU216HW,2013-07-09 07:31:00,
2013-07-09 03:36:00,70.9,67.9,30.06,North,0,0.0,0.0,90,0.00,,,0.03,WUHU216HW,2013-07-09 07:36:00,
2013-07-09 03:41:00,70.9,67.9,30.06,North,0,0.0,0.0,90,0.00,,,0.03,WUHU216HW,2013-07-09 07:41:00,
2013-07-09 03:46:00,70.9,67.9,30.06,North,0,0.0,0.0,90,0.00,,,0.03,WUHU216HW,2013-07-09 07:46:00,
2013-07-09 03:52:00,70.7,67.7,30.07,North,0,0.0,0.0,90,0.00,,,0.03,WUHU216HW,2013-07-09 07:52:00,
2013-07-09 03:57:00,70.7,67.7,30.07,North,0,0.0,0.0,90,0.00,,,0.03,WUHU216HW,2013-07-09 07:57:00,
2013-07-09 04:02:00,70.7,67.7,30.07,North,0,0.0,0.0,90,0.00,,,0.03,WUHU216HW,2013-07-09 08:02:00,
2013-07-09 04:07:00,70.6,67.5,30.07,North,0,0.0,0.0,90,0.00,,,0.03,WUHU216HW,2013-07-09 08:07:00,
2013-07-09 04:12:00,70.6,67.5,30.07,North,0,0.0,0.0,90,0.00,,,0.03,WUHU216HW,2013-07-09 08:12:00,
2013-07-09 04:17:00,70.6,67.8,30.07,North,0,0.0,0.0,91,0.00,,,0.03,WUHU216HW,2013-07-09 08:17:00,
2013-07-09 04:22:00,70.7,68.0,30.07,North,0,0.0,0.0,91,0.00,,,0.03,WUHU216HW,2013-07-09 08:22:00,
2013-07-09 04:27:00,70.7,68.0,30.07,North,0,0.0,0.0,91,0.00,,,0.03,WUHU216HW,2013-07-09 08:27:00,
2013-07-09 04:32:00,70.7,68.0,30.07,North,0,0.0,0.0,91,0.00,,,0.03,WUHU216HW,2013-07-09 08:32:00,
2013-07-09 04:37:00,70.7,67.7,30.07,North,0,0.0,0.0,90,0.00,,,0.03,WUHU216HW,2013-07-09 08:37:00,
2013-07-09 04:42:00,70.6,67.5,30.07,North,0,0.0,0.0,90,0.00,,,0.03,WUHU216HW,2013-07-09 08:42:00,
2013-07-09 04:47:00,70.6,67.5,30.07,North,0,0.0,0.0,90,0.00,,,0.03,WUHU216HW,2013-07-09 08:47:00,
2013-07-09 04:52:00,70.6,67.5,30.07,North,0,0.0,0.0,90,0.00,,,0.03,WUHU216HW,2013-07-09 08:52:00,
2013-07-09 04:57:00,70.4,67.3,30.07,North,0,0.0,0.0,90,0.00,,,0.03,WUHU216HW,2013-07-09 08:57:00,
2013-07-09 05:02:00,70.4,67.3,30.07,North,0,0.0,0.0,90,0.00,,,0.03,WUHU216HW,2013-07-09 09:02:00,
2013-07-09 05:07:00,70.4,67.3,30.07,North,0,0.0,0.0,90,0.00,,,0.03,WUHU216HW,2013-07-09 09:07:00,
2013-07-09 05:12:00,70.4,67.3,30.07,North,0,0.0,0.0,90,0.00,,,0.03,WUHU216HW,2013-07-09 09:12:00,
2013-07-09 05:17:00,70.2,67.1,30.07,North,0,0.0,0.0,90,0.00,,,0.03,WUHU216HW,2013-07-09 09:17:00,
2013-07-09 05:22:00,70.2,67.1,30.07,North,0,0.0,0.0,90,0.00,,,0.03,WUHU216HW,2013-07-09 09:22:00,
2013-07-09 05:27:00,70.2,67.1,30.07,North,0,0.0,0.0,90,0.00,,,0.03,WUHU216HW,2013-07-09 09:27:00,
2013-07-09 05:32:00,70.2,67.1,30.07,North,0,0.0,0.0,90,0.00,,,0.03,WUHU216HW,2013-07-09 09:32:00,
2013-07-09 05:37:00,70.2,67.1,30.07,North,0,0.0,0.0,90,0.00,,,0.03,WUHU216HW,2013-07-09 09:37:00,
2013-07-09 05:42:00,70.4,67.3,30.07,North,0,0.0,0.0,90,0.00,,,0.03,WUHU216HW,2013-07-09 09:42:00,
2013-07-09 05:47:00,70.4,67.3,30.07,North,0,0.0,0.0,90,0.00,,,0.03,WUHU216HW,2013-07-09 09:47:00,
2013-07-09 05:52:00,70.2,67.1,30.07,North,0,0.0,0.0,90,0.00,,,0.03,WUHU216HW,2013-07-09 09:52:00,
2013-07-09 05:57:00,70.2,67.1,30.07,North,0,0.0,0.0,90,0.00,,,0.03,WUHU216HW,2013-07-09 09:57:00,
2013-07-09 06:02:00,70.2,67.1,30.08,North,0,0.0,0.0,90,0.00,,,0.03,WUHU216HW,2013-07-09 10:02:00,
2013-07-09 06:07:00,70.2,67.1,30.07,North,0,0.0,0.0,90,0.00,,,0.03,WUHU216HW,2013-07-09 10:07:00,
2013-07-09 06:12:00,70.2,67.1,30.07,North,0,0.0,0.0,90,0.00,,,0.03,WUHU216HW,2013-07-09 10:12:00,
2013-07-09 06:17:00,70.2,67.1,30.08,North,0,0.0,0.0,90,0.00,,,0.03,WUHU216HW,2013-07-09 10:17:00,
2013-07-09 06:22:00,70.2,67.1,30.07,North,0,0.0,0.0,90,0.00,,,0.03,WUHU216HW,2013-07-09 10:22:00,
2013-07-09 06:27:00,70.2,67.1,30.08,North,0,0.0,0.0,90,0.00,,,0.03,WUHU216HW,2013-07-09 10:27:00,
2013-07-09 06:32:00,70.2,67.1,30.07,North,0,0.0,0.0,90,0.00,,,0.03,WUHU216HW,2013-07-09 10:32:00,
2013-07-09 06:37:00,70.2,67.1,30.07,North,0,0.0,0.0,90,0.00,,,0.03,WUHU216HW,2013-07-09 10:37:00,
2013-07-09 06:42:00,70.4,67.3,30.07,North,0,0.0,0.0,90,0.00,,,0.03,WUHU216HW,2013-07-09 10:42:00,
2013-07-09 06:47:00,70.6,67.5,30.07,North,0,0.0,0.0,90,0.00,,,0.03,WUHU216HW,2013-07-09 10:47:00,
2013-07-09 06:52:00,70.7,67.7,30.08,North,0,0.0,0.0,90,0.00,,,0.03,WUHU216HW,2013-07-09 10:52:00,
2013-07-09 06:57:00,70.9,68.1,30.08,North,0,0.0,0.0,91,0.01,,,0.03,WUHU216HW,2013-07-09 10:57:00,
2013-07-09 07:02:00,70.9,67.9,30.08,North,0,0.0,0.0,90,0.01,,,0.04,WUHU216HW,2013-07-09 11:02:00,
2013-07-09 07:07:00,70.9,67.9,30.08,North,0,0.0,0.0,90,0.01,,,0.04,WUHU216HW,2013-07-09 11:07:00,
2013-07-09 07:12:00,70.7,67.7,30.08,North,0,0.0,0.0,90,0.01,,,0.04,WUHU216HW,2013-07-09 11:12:00,
2013-07-09 07:17:00,70.7,67.7,30.08,North,0,0.0,0.0,90,0.01,,,0.04,WUHU216HW,2013-07-09 11:17:00,
2013-07-09 07:22:00,70.6,67.5,30.08,North,0,0.0,0.0,90,0.01,,,0.04,WUHU216HW,2013-07-09 11:22:00,
2013-07-09 07:27:00,70.6,67.5,30.08,North,0,0.0,0.0,90,0.01,,,0.04,WUHU216HW,2013-07-09 11:27:00,
2013-07-09 07:32:00,70.6,67.5,30.08,North,0,0.0,0.0,90,0.01,,,0.04,WUHU216HW,2013-07-09 11:32:00,
2013-07-09 07:37:00,70.7,67.7,30.08,North,0,0.0,0.0,90,0.01,,,0.04,WUHU216HW,2013-07-09 11:37:00,
2013-07-09 07:42:00,70.9,67.9,30.08,North,0,0.0,0.0,90,0.01,,,0.04,WUHU216HW,2013-07-09 11:42:00,
2013-07-09 07:47:00,70.9,67.9,30.08,North,0,0.0,0.0,90,0.01,,,0.04,WUHU216HW,2013-07-09 11:47:00,
2013-07-09 07:53:00,70.9,67.9,30.08,North,0,0.0,0.0,90,0.01,,,0.04,WUHU216HW,2013-07-09 11:53:00,
2013-07-09 07:57:00,70.9,67.9,30.08,North,0,0.0,0.0,90,0.00,,,0.04,WUHU216HW,2013-07-09 11:57:00,
2013-07-09 08:03:00,71.1,68.0,30.08,North,0,0.0,0.0,90,0.00,,,0.04,WUHU216HW,2013-07-09 12:03:00,
2013-07-09 08:08:00,71.1,68.0,30.08,North,0,0.0,0.0,90,0.00,,,0.04,WUHU216HW,2013-07-09 12:08:00,
2013-07-09 08:13:00,71.3,68.2,30.08,North,0,0.0,0.0,90,0.00,,,0.04,WUHU216HW,2013-07-09 12:13:00,
2013-07-09 08:17:00,71.6,68.6,30.08,North,0,0.0,0.0,90,0.00,,,0.04,WUHU216HW,2013-07-09 12:17:00,
2013-07-09 08:23:00,71.8,68.8,30.08,North,0,0.0,0.0,90,0.00,,,0.04,WUHU216HW,2013-07-09 12:23:00,
2013-07-09 08:28:00,71.6,68.6,30.08,North,0,0.0,0.0,90,0.00,,,0.04,WUHU216HW,2013-07-09 12:28:00,
2013-07-09 08:33:00,71.8,68.8,30.08,North,0,0.0,0.0,90,0.00,,,0.04,WUHU216HW,2013-07-09 12:33:00,
2013-07-09 08:38:00,71.8,68.8,30.08,North,0,0.0,0.0,90,0.00,,,0.04,WUHU216HW,2013-07-09 12:38:00,
2013-07-09 08:43:00,72.0,68.9,30.08,North,0,0.0,0.0,90,0.00,,,0.04,WUHU216HW,2013-07-09 12:43:00,
2013-07-09 08:48:00,72.0,68.9,30.08,North,0,0.0,0.0,90,0.00,,,0.04,WUHU216HW,2013-07-09 12:48:00,
2013-07-09 08:53:00,72.4,69.3,30.08,North,0,0.0,0.0,90,0.00,,,0.04,WUHU216HW,2013-07-09 12:53:00,
2013-07-09 08:58:00,72.4,69.3,30.08,North,0,0.0,0.0,90,0.00,,,0.04,WUHU216HW,2013-07-09 12:58:00,
2013-07-09 09:03:00,72.5,69.1,30.08,North,0,0.0,0.0,89,0.00,,,0.04,WUHU216HW,2013-07-09 13:03:00,
2013-07-09 09:08:00,72.5,69.1,30.08,North,0,0.0,0.0,89,0.00,,,0.04,WUHU216HW,2013-07-09 13:08:00,
2013-07-09 09:13:00,72.7,69.3,30.08,North,0,0.0,0.0,89,0.00,,,0.04,WUHU216HW,2013-07-09 13:13:00,
2013-07-09 09:18:00,72.7,69.3,30.07,North,0,0.0,0.0,89,0.00,,,0.04,WUHU216HW,2013-07-09 13:18:00,
2013-07-09 09:23:00,72.7,69.3,30.07,North,0,0.0,0.0,89,0.00,,,0.04,WUHU216HW,2013-07-09 13:23:00,
2013-07-09 09:28:00,73.1,69.7,30.07,North,0,0.0,0.0,89,0.00,,,0.04,WUHU216HW,2013-07-09 13:28:00,
2013-07-09 09:33:00,73.4,70.4,30.07,North,0,0.0,0.0,90,0.00,,,0.04,WUHU216HW,2013-07-09 13:33:00,
2013-07-09 09:38:00,73.6,70.2,30.08,North,0,0.0,0.0,89,0.00,,,0.04,WUHU216HW,2013-07-09 13:38:00,
2013-07-09 09:43:00,73.8,70.4,30.07,North,0,0.0,0.0,89,0.00,,,0.04,WUHU216HW,2013-07-09 13:43:00,
2013-07-09 09:48:00,73.8,70.4,30.07,North,0,0.0,0.0,89,0.00,,,0.04,WUHU216HW,2013-07-09 13:48:00,
2013-07-09 09:53:00,73.8,70.4,30.07,North,0,0.0,0.0,89,0.00,,,0.04,WUHU216HW,2013-07-09 13:53:00,
2013-07-09 09:58:00,73.8,70.4,30.07,North,0,0.0,0.0,89,0.00,,,0.04,WUHU216HW,2013-07-09 13:58:00,
2013-07-09 10:03:00,74.0,70.6,30.07,North,0,0.0,0.0,89,0.00,,,0.04,WUHU216HW,2013-07-09 14:03:00,
2013-07-09 10:08:00,74.0,70.2,30.07,North,0,0.0,0.0,88,0.00,,,0.04,WUHU216HW,2013-07-09 14:08:00,
2013-07-09 10:13:00,74.2,69.8,30.07,North,0,0.0,0.0,86,0.00,,,0.04,WUHU216HW,2013-07-09 14:13:00,
2013-07-09 10:18:00,74.2,69.4,30.08,North,0,0.0,0.0,85,0.00,,,0.04,WUHU216HW,2013-07-09 14:18:00,
2013-07-09 10:23:00,74.0,69.2,30.08,North,0,0.0,0.0,85,0.00,,,0.04,WUHU216HW,2013-07-09 14:23:00,
2013-07-09 10:28:00,73.8,69.0,30.08,North,0,0.0,0.0,85,0.00,,,0.04,WUHU216HW,2013-07-09 14:28:00,
2013-07-09 10:33:00,73.6,68.9,30.07,North,0,0.0,0.0,85,0.00,,,0.04,WUHU216HW,2013-07-09 14:33:00,
2013-07-09 10:38:00,73.6,68.9,30.07,North,0,0.0,0.0,85,0.00,,,0.04,WUHU216HW,2013-07-09 14:38:00,
2013-07-09 10:43:00,73.4,68.7,30.07,North,0,0.0,0.0,85,0.00,,,0.04,WUHU216HW,2013-07-09 14:43:00,
2013-07-09 10:48:00,73.4,68.7,30.07,North,0,0.0,0.0,85,0.00,,,0.04,WUHU216HW,2013-07-09 14:48:00,
2013-07-09 10:53:00,73.4,68.7,30.07,North,0,0.0,0.0,85,0.00,,,0.04,WUHU216HW,2013-07-09 14:53:00,
2013-07-09 10:58:00,73.1,68.3,30.07,North,0,0.0,0.0,85,0.00,,,0.04,WUHU216HW,2013-07-09 14:58:00,
2013-07-09 11:03:00,73.1,68.3,30.07,North,0,0.0,0.0,85,0.00,,,0.04,WUHU216HW,2013-07-09 15:03:00,
2013-07-09 11:08:00,73.1,68.7,30.07,North,0,0.0,0.0,86,0.00,,,0.04,WUHU216HW,2013-07-09 15:08:00,
2013-07-09 11:13:00,73.1,68.7,30.07,North,0,0.0,0.0,86,0.00,,,0.04,WUHU216HW,2013-07-09 15:13:00,
2013-07-09 11:18:00,73.1,69.0,30.07,North,0,0.0,0.0,87,0.00,,,0.04,WUHU216HW,2013-07-09 15:18:00,
2013-07-09 11:23:00,73.8,69.8,30.07,North,0,0.0,0.0,87,0.00,,,0.04,WUHU216HW,2013-07-09 15:23:00,
2013-07-09 11:28:00,74.3,69.9,30.06,North,0,0.0,0.0,86,0.00,,,0.04,WUHU216HW,2013-07-09 15:28:00,
2013-07-09 11:33:00,75.2,70.8,30.06,North,0,0.0,0.0,86,0.00,,,0.04,WUHU216HW,2013-07-09 15:33:00,
2013-07-09 11:38:00,75.8,70.7,30.06,North,0,0.0,0.0,84,0.00,,,0.04,WUHU216HW,2013-07-09 15:38:00,
2013-07-09 11:43:00,76.0,70.5,30.06,North,0,0.0,0.0,83,0.00,,,0.04,WUHU216HW,2013-07-09 15:43:00,
2013-07-09 11:48:00,75.8,70.3,30.06,North,0,0.0,0.0,83,0.00,,,0.04,WUHU216HW,2013-07-09 15:48:00,
2013-07-09 11:53:00,75.8,70.3,30.06,North,0,0.0,0.0,83,0.00,,,0.04,WUHU216HW,2013-07-09 15:53:00,
2013-07-09 11:58:00,76.3,70.5,30.06,North,0,0.0,0.0,82,0.00,,,0.04,WUHU216HW,2013-07-09 15:58:00,
2013-07-09 12:03:00,77.0,70.7,30.06,North,0,0.0,0.0,81,0.00,,,0.04,WUHU216HW,2013-07-09 16:03:00,
2013-07-09 12:08:00,77.8,71.1,30.06,North,0,0.0,0.0,80,0.00,,,0.04,WUHU216HW,2013-07-09 16:08:00,
2013-07-09 12:13:00,77.9,70.9,30.06,North,0,0.0,0.0,79,0.00,,,0.04,WUHU216HW,2013-07-09 16:13:00,
2013-07-09 12:18:00,78.1,70.3,30.05,North,0,0.0,0.0,77,0.00,,,0.04,WUHU216HW,2013-07-09 16:18:00,
2013-07-09 12:23:00,78.1,70.7,30.05,North,0,0.0,0.0,78,0.00,,,0.04,WUHU216HW,2013-07-09 16:23:00,
2013-07-09 12:28:00,77.9,70.1,30.05,North,0,0.0,0.0,77,0.00,,,0.04,WUHU216HW,2013-07-09 16:28:00,
2013-07-09 12:33:00,78.1,70.3,30.05,North,0,0.0,0.0,77,0.00,,,0.04,WUHU216HW,2013-07-09 16:33:00,
2013-07-09 12:38:00,77.9,70.1,30.05,North,0,0.0,0.0,77,0.00,,,0.04,WUHU216HW,2013-07-09 16:38:00,
2013-07-09 12:43:00,78.1,70.7,30.05,North,0,0.0,0.0,78,0.00,,,0.04,WUHU216HW,2013-07-09 16:43:00,
2013-07-09 12:48:00,78.1,70.3,30.05,North,0,0.0,0.0,77,0.00,,,0.04,WUHU216HW,2013-07-09 16:48:00,
2013-07-09 12:53:00,78.1,70.3,30.05,North,0,0.0,0.0,77,0.00,,,0.04,WUHU216HW,2013-07-09 16:53:00,
2013-07-09 12:58:00,78.1,70.3,30.05,North,0,0.0,0.0,77,0.00,,,0.04,WUHU216HW,2013-07-09 16:58:00,
2013-07-09 13:03:00,78.3,70.5,30.05,North,0,0.0,0.0,77,0.00,,,0.04,WUHU216HW,2013-07-09 17:03:00,
2013-07-09 13:08:00,78.5,70.7,30.06,North,0,0.0,0.0,77,0.00,,,0.04,WUHU216HW,2013-07-09 17:08:00,
2013-07-09 13:13:00,78.7,70.8,30.05,North,0,0.0,0.0,77,0.00,,,0.04,WUHU216HW,2013-07-09 17:13:00,
2013-07-09 13:18:00,78.3,70.1,30.05,North,0,0.0,0.0,76,0.00,,,0.04,WUHU216HW,2013-07-09 17:18:00,
2013-07-09 13:23:00,78.1,70.3,30.05,North,0,0.0,0.0,77,0.00,,,0.04,WUHU216HW,2013-07-09 17:23:00,
2013-07-09 13:28:00,77.9,70.1,30.05,North,0,0.0,0.0,77,0.00,,,0.04,WUHU216HW,2013-07-09 17:28:00,
2013-07-09 13:33:00,77.6,69.8,30.05,North,0,0.0,0.0,77,0.00,,,0.04,WUHU216HW,2013-07-09 17:33:00,
2013-07-09 13:38:00,77.4,69.6,30.05,North,0,0.0,0.0,77,0.00,,,0.04,WUHU216HW,2013-07-09 17:38:00,
2013-07-09 13:43:00,77.4,70.0,30.05,North,0,0.0,0.0,78,0.00,,,0.04,WUHU216HW,2013-07-09 17:43:00,
2013-07-09 13:48:00,77.4,70.0,30.05,North,0,0.0,0.0,78,0.00,,,0.04,WUHU216HW,2013-07-09 17:48:00,
2013-07-09 13:53:00,77.6,70.1,30.05,North,0,0.0,0.0,78,0.00,,,0.04,WUHU216HW,2013-07-09 17:53:00,
2013-07-09 13:58:00,77.4,70.0,30.05,North,0,0.0,0.0,78,0.00,,,0.04,WUHU216HW,2013-07-09 17:58:00,
2013-07-09 14:03:00,77.2,69.9,30.04,North,0,0.0,0.0,78,0.00,,,0.04,WUHU216HW,2013-07-09 18:03:00,
2013-07-09 14:08:00,77.2,70.2,30.05,North,0,0.0,0.0,79,0.00,,,0.04,WUHU216HW,2013-07-09 18:08:00,
2013-07-09 14:13:00,77.2,70.2,30.04,North,0,0.0,0.0,79,0.00,,,0.04,WUHU216HW,2013-07-09 18:13:00,
2013-07-09 14:18:00,77.4,70.4,30.04,North,0,0.0,0.0,79,0.00,,,0.04,WUHU216HW,2013-07-09 18:18:00,
2013-07-09 14:23:00,77.8,70.3,30.04,North,0,0.0,0.0,78,0.00,,,0.04,WUHU216HW,2013-07-09 18:23:00,
2013-07-09 14:28:00,77.9,70.9,30.04,North,0,0.0,0.0,79,0.00,,,0.04,WUHU216HW,2013-07-09 18:28:00,
2013-07-09 14:33:00,78.3,70.8,30.04,North,0,0.0,0.0,78,0.00,,,0.04,WUHU216HW,2013-07-09 18:33:00,
2013-07-09 14:38:00,78.1,70.7,30.04,North,0,0.0,0.0,78,0.00,,,0.04,WUHU216HW,2013-07-09 18:38:00,
2013-07-09 14:43:00,78.1,70.3,30.04,North,0,0.0,0.0,77,0.00,,,0.04,WUHU216HW,2013-07-09 18:43:00,
2013-07-09 14:48:00,78.1,70.7,30.04,North,0,0.0,0.0,78,0.00,,,0.04,WUHU216HW,2013-07-09 18:48:00,
2013-07-09 14:53:00,78.5,71.0,30.03,North,0,0.0,0.0,78,0.00,,,0.04,WUHU216HW,2013-07-09 18:53:00,
2013-07-09 14:58:00,78.5,70.7,30.04,North,0,0.0,0.0,77,0.00,,,0.04,WUHU216HW,2013-07-09 18:58:00,
2013-07-09 15:03:00,78.8,71.4,30.04,North,0,0.0,0.0,78,0.00,,,0.04,WUHU216HW,2013-07-09 19:03:00,
2013-07-09 15:08:00,79.0,70.7,30.03,North,0,0.0,0.0,76,0.00,,,0.04,WUHU216HW,2013-07-09 19:08:00,
2013-07-09 15:13:00,79.6,71.3,30.03,North,0,0.0,0.0,76,0.00,,,0.04,WUHU216HW,2013-07-09 19:13:00,
2013-07-09 15:18:00,79.6,70.9,30.03,North,0,0.0,0.0,75,0.00,,,0.04,WUHU216HW,2013-07-09 19:18:00,
2013-07-09 15:23:00,79.4,70.7,30.03,North,0,0.0,0.0,75,0.00,,,0.04,WUHU216HW,2013-07-09 19:23:00,
2013-07-09 15:28:00,79.0,70.4,30.03,North,0,0.0,0.0,75,0.00,,,0.04,WUHU216HW,2013-07-09 19:28:00,
2013-07-09 15:33:00,78.5,69.8,30.03,North,0,0.0,0.0,75,0.00,,,0.04,WUHU216HW,2013-07-09 19:33:00,
2013-07-09 15:38:00,78.1,70.3,30.03,North,0,0.0,0.0,77,0.00,,,0.04,WUHU216HW,2013-07-09 19:38:00,
2013-07-09 15:43:00,78.1,70.7,30.02,North,0,0.0,0.0,78,0.00,,,0.04,WUHU216HW,2013-07-09 19:43:00,
2013-07-09 15:48:00,78.3,70.5,30.02,North,0,0.0,0.0,77,0.00,,,0.04,WUHU216HW,2013-07-09 19:48:00,
2013-07-09 15:53:00,78.3,70.5,30.02,North,0,0.0,0.0,77,0.00,,,0.04,WUHU216HW,2013-07-09 19:53:00,
2013-07-09 15:58:00,78.5,70.7,30.02,North,0,0.0,0.0,77,0.00,,,0.04,WUHU216HW,2013-07-09 19:58:00,
2013-07-09 16:03:00,78.8,70.6,30.02,North,0,0.0,0.0,76,0.00,,,0.04,WUHU216HW,2013-07-09 20:03:00,
2013-07-09 16:08:00,79.0,71.2,30.01,North,0,0.0,0.0,77,0.00,,,0.04,WUHU216HW,2013-07-09 20:08:00,
2013-07-09 16:13:00,79.6,71.7,30.01,North,0,0.0,0.0,77,0.00,,,0.04,WUHU216HW,2013-07-09 20:13:00,
2013-07-09 16:18:00,80.1,71.8,30.01,North,0,0.0,0.0,76,0.00,,,0.04,WUHU216HW,2013-07-09 20:18:00,
2013-07-09 16:23:00,80.6,72.0,30.01,North,0,0.0,0.0,75,0.00,,,0.04,WUHU216HW,2013-07-09 20:23:00,
2013-07-09 16:28:00,80.5,71.0,30.01,North,0,0.0,0.0,73,0.00,,,0.04,WUHU216HW,2013-07-09 20:28:00,
2013-07-09 16:33:00,80.3,71.3,30.00,North,0,0.0,0.0,74,0.00,,,0.04,WUHU216HW,2013-07-09 20:33:00,
2013-07-09 16:38:00,80.1,71.5,30.00,North,0,0.0,0.0,75,0.00,,,0.04,WUHU216HW,2013-07-09 20:38:00,
2013-07-09 16:43:00,80.3,71.6,30.00,North,0,0.0,0.0,75,0.00,,,0.04,WUHU216HW,2013-07-09 20:43:00,
2013-07-09 16:48:00,81.0,73.2,30.00,North,0,0.0,0.0,77,0.00,,,0.04,WUHU216HW,2013-07-09 20:48:00,
2013-07-09 16:53:00,82.3,73.5,30.00,North,0,0.0,0.0,75,0.00,,,0.04,WUHU216HW,2013-07-09 20:53:00,
2013-07-09 16:58:00,82.8,72.8,30.00,North,0,0.0,0.0,72,0.00,,,0.04,WUHU216HW,2013-07-09 20:58:00,
2013-07-09 17:03:00,83.0,73.0,30.00,North,0,0.0,0.0,72,0.00,,,0.04,WUHU216HW,2013-07-09 21:03:00,
2013-07-09 17:08:00,82.8,72.5,29.99,North,0,0.0,0.0,71,0.00,,,0.04,WUHU216HW,2013-07-09 21:08:00,
2013-07-09 17:13:00,82.8,72.8,29.99,North,0,0.0,0.0,72,0.00,,,0.04,WUHU216HW,2013-07-09 21:13:00,
2013-07-09 17:18:00,82.6,72.6,29.99,North,0,0.0,0.0,72,0.00,,,0.04,WUHU216HW,2013-07-09 21:18:00,
2013-07-09 17:23:00,82.6,72.3,29.99,North,0,0.0,0.0,71,0.00,,,0.04,WUHU216HW,2013-07-09 21:23:00,
2013-07-09 17:28:00,82.3,72.3,29.99,North,0,0.0,0.0,72,0.00,,,0.04,WUHU216HW,2013-07-09 21:28:00,
2013-07-09 17:33:00,82.1,72.2,29.98,North,0,0.0,0.0,72,0.00,,,0.04,WUHU216HW,2013-07-09 21:33:00,
2013-07-09 17:38:00,81.9,72.0,29.98,North,0,0.0,0.0,72,0.00,,,0.04,WUHU216HW,2013-07-09 21:38:00,
2013-07-09 17:43:00,82.1,72.2,29.98,North,0,0.0,0.0,72,0.00,,,0.04,WUHU216HW,2013-07-09 21:43:00,
2013-07-09 17:48:00,82.1,72.2,29.98,North,0,0.0,0.0,72,0.00,,,0.04,WUHU216HW,2013-07-09 21:48:00,
2013-07-09 17:53:00,82.3,72.3,29.98,North,0,0.0,0.0,72,0.00,,,0.04,WUHU216HW,2013-07-09 21:53:00,
2013-07-09 17:58:00,82.8,72.8,29.98,North,0,0.0,0.0,72,0.00,,,0.04,WUHU216HW,2013-07-09 21:58:00,
2013-07-09 18:03:00,83.0,72.6,29.98,North,0,0.0,0.0,71,0.00,,,0.04,WUHU216HW,2013-07-09 22:03:00,
2013-07-09 18:08:00,82.8,72.5,29.98,North,0,0.0,0.0,71,0.00,,,0.04,WUHU216HW,2013-07-09 22:08:00,
2013-07-09 18:13:00,82.8,72.8,29.98,North,0,0.0,0.0,72,0.00,,,0.04,WUHU216HW,2013-07-09 22:13:00,
2013-07-09 18:18:00,83.0,73.0,29.98,North,0,0.0,0.0,72,0.00,,,0.04,WUHU216HW,2013-07-09 22:18:00,
2013-07-09 18:23:00,82.8,72.0,29.98,North,0,0.0,0.0,70,0.00,,,0.04,WUHU216HW,2013-07-09 22:23:00,
2013-07-09 18:28:00,82.3,71.5,29.98,North,0,0.0,0.0,70,0.00,,,0.04,WUHU216HW,2013-07-09 22:28:00,
2013-07-09 18:33:00,81.9,71.6,29.98,North,0,0.0,0.0,71,0.00,,,0.04,WUHU216HW,2013-07-09 22:33:00,
2013-07-09 18:38:00,82.1,72.2,29.97,North,0,0.0,0.0,72,0.00,,,0.04,WUHU216HW,2013-07-09 22:38:00,
2013-07-09 18:43:00,82.4,72.1,29.97,North,0,0.0,0.0,71,0.00,,,0.04,WUHU216HW,2013-07-09 22:43:00,
2013-07-09 18:48:00,82.6,72.6,29.97,North,0,0.0,0.0,72,0.00,,,0.04,WUHU216HW,2013-07-09 22:48:00,
2013-07-09 18:53:00,83.2,72.8,29.97,North,0,0.0,0.0,71,0.00,,,0.04,WUHU216HW,2013-07-09 22:53:00,
2013-07-09 18:58:00,83.5,72.7,29.96,North,0,0.0,0.0,70,0.00,,,0.04,WUHU216HW,2013-07-09 22:58:00,
2013-07-09 19:03:00,83.3,72.5,29.96,North,0,0.0,0.0,70,0.00,,,0.04,WUHU216HW,2013-07-09 23:03:00,
2013-07-09 19:08:00,82.8,72.0,29.96,North,0,0.0,0.0,70,0.00,,,0.04,WUHU216HW,2013-07-09 23:08:00,
2013-07-09 19:13:00,82.1,70.8,29.97,North,0,0.0,0.0,69,0.00,,,0.04,WUHU216HW,2013-07-09 23:13:00,
2013-07-09 19:18:00,81.7,71.0,29.97,North,0,0.0,0.0,70,0.00,,,0.04,WUHU216HW,2013-07-09 23:18:00,
2013-07-09 19:23:00,81.0,70.7,29.97,North,0,0.0,0.0,71,0.00,,,0.04,WUHU216HW,2013-07-09 23:23:00,
2013-07-09 19:28:00,80.6,70.8,29.97,North,0,0.0,0.0,72,0.00,,,0.04,WUHU216HW,2013-07-09 23:28:00,
2013-07-09 19:33:00,80.3,70.8,29.97,North,0,0.0,0.0,73,0.00,,,0.04,WUHU216HW,2013-07-09 23:33:00,
2013-07-09 19:38:00,80.3,70.8,29.97,North,0,0.0,0.0,73,0.00,,,0.04,WUHU216HW,2013-07-09 23:38:00,
2013-07-09 19:43:00,79.9,70.9,29.98,North,0,0.0,0.0,74,0.00,,,0.04,WUHU216HW,2013-07-09 23:43:00,
2013-07-09 19:48:00,79.6,70.6,29.97,North,0,0.0,0.0,74,0.00,,,0.04,WUHU216HW,2013-07-09 23:48:00,
2013-07-09 19:53:00,79.2,70.6,29.96,North,0,0.0,0.0,75,0.00,,,0.04,WUHU216HW,2013-07-09 23:53:00,
2013-07-09 19:58:00,78.7,70.0,29.96,North,0,0.0,0.0,75,0.00,,,0.04,WUHU216HW,2013-07-09 23:58:00,
2013-07-09 20:03:00,78.3,70.1,29.97,North,0,0.0,0.0,76,0.00,,,0.04,WUHU216HW,2013-07-10 00:03:00,
2013-07-09 20:08:00,78.1,69.9,29.97,North,0,0.0,0.0,76,0.00,,,0.04,WUHU216HW,2013-07-10 00:08:00,
2013-07-09 20:13:00,77.9,70.1,29.97,North,0,0.0,0.0,77,0.00,,,0.04,WUHU216HW,2013-07-10 00:13:00,
2013-07-09 20:18:00,77.8,70.3,29.97,North,0,0.0,0.0,78,0.00,,,0.04,WUHU216HW,2013-07-10 00:18:00,
2013-07-09 20:23:00,77.4,70.0,29.97,North,0,0.0,0.0,78,0.00,,,0.04,WUHU216HW,2013-07-10 00:23:00,
2013-07-09 20:28:00,77.2,69.9,29.97,North,0,0.0,0.0,78,0.00,,,0.04,WUHU216HW,2013-07-10 00:28:00,
2013-07-09 20:33:00,77.0,69.7,29.96,North,0,0.0,0.0,78,0.00,,,0.04,WUHU216HW,2013-07-10 00:33:00,
2013-07-09 20:38:00,76.9,69.9,29.97,North,0,0.0,0.0,79,0.00,,,0.04,WUHU216HW,2013-07-10 00:38:00,
2013-07-09 20:43:00,76.7,69.7,29.97,North,0,0.0,0.0,79,0.00,,,0.04,WUHU216HW,2013-07-10 00:43:00,
2013-07-09 20:48:00,76.7,69.7,29.96,North,0,0.0,0.0,79,0.00,,,0.04,WUHU216HW,2013-07-10 00:48:00,
2013-07-09 20:53:00,76.5,69.5,29.96,North,0,0.0,0.0,79,0.00,,,0.04,WUHU216HW,2013-07-10 00:53:00,
2013-07-09 20:58:00,76.3,69.4,29.96,North,0,0.0,0.0,79,0.00,,,0.04,WUHU216HW,2013-07-10 00:58:00,
2013-07-09 21:03:00,76.0,69.0,29.96,North,0,0.0,0.0,79,0.00,,,0.04,WUHU216HW,2013-07-10 01:03:00,
2013-07-09 21:08:00,75.8,69.2,29.96,North,0,0.0,0.0,80,0.00,,,0.04,WUHU216HW,2013-07-10 01:08:00,
2013-07-09 21:13:00,75.4,69.0,29.96,North,0,0.0,0.0,80,0.00,,,0.04,WUHU216HW,2013-07-10 01:13:00,
2013-07-09 21:18:00,75.2,69.1,29.96,North,0,0.0,0.0,81,0.00,,,0.04,WUHU216HW,2013-07-10 01:18:00,
2013-07-09 21:23:00,74.9,68.8,29.96,North,0,0.0,0.0,81,0.00,,,0.04,WUHU216HW,2013-07-10 01:23:00,
2013-07-09 21:28:00,74.5,68.4,29.96,North,0,0.0,0.0,81,0.00,,,0.04,WUHU216HW,2013-07-10 01:28:00,
2013-07-09 21:33:00,74.5,68.8,29.96,North,0,0.0,0.0,82,0.00,,,0.04,WUHU216HW,2013-07-10 01:33:00,
2013-07-09 21:38:00,74.2,68.4,29.96,North,0,0.0,0.0,82,0.00,,,0.04,WUHU216HW,2013-07-10 01:38:00,
2013-07-09 21:43:00,74.2,68.4,29.97,North,0,0.0,0.0,82,0.00,,,0.04,WUHU216HW,2013-07-10 01:43:00,
2013-07-09 21:48:00,74.0,68.5,29.97,North,0,0.0,0.0,83,0.00,,,0.04,WUHU216HW,2013-07-10 01:48:00,
2013-07-09 21:53:00,73.8,68.3,29.96,North,0,0.0,0.0,83,0.00,,,0.04,WUHU216HW,2013-07-10 01:53:00,
2013-07-09 21:58:00,73.8,68.3,29.96,North,0,0.0,0.0,83,0.00,,,0.04,WUHU216HW,2013-07-10 01:58:00,
2013-07-09 22:03:00,73.8,68.7,29.97,North,0,0.0,0.0,84,0.00,,,0.04,WUHU216HW,2013-07-10 02:03:00,
2013-07-09 22:08:00,73.6,68.5,29.97,North,0,0.0,0.0,84,0.00,,,0.04,WUHU216HW,2013-07-10 02:08:00,
2013-07-09 22:13:00,73.6,68.5,29.96,North,0,0.0,0.0,84,0.00,,,0.04,WUHU216HW,2013-07-10 02:13:00,
2013-07-09 22:18:00,73.4,68.3,29.97,North,0,0.0,0.0,84,0.00,,,0.04,WUHU216HW,2013-07-10 02:18:00,
2013-07-09 22:23:00,73.3,68.5,29.96,North,0,0.0,0.0,85,0.00,,,0.04,WUHU216HW,2013-07-10 02:23:00,
2013-07-09 22:28:00,73.1,68.3,29.96,North,0,0.0,0.0,85,0.00,,,0.04,WUHU216HW,2013-07-10 02:28:00,
2013-07-09 22:33:00,72.9,68.1,29.96,North,0,0.0,0.0,85,0.00,,,0.04,WUHU216HW,2013-07-10 02:33:00,
2013-07-09 22:38:00,72.9,68.1,29.96,North,0,0.0,0.0,85,0.00,,,0.04,WUHU216HW,2013-07-10 02:38:00,
2013-07-09 22:43:00,72.7,68.3,29.96,North,0,0.0,0.0,86,0.00,,,0.04,WUHU216HW,2013-07-10 02:43:00,
2013-07-09 22:48:00,72.5,68.1,29.96,North,0,0.0,0.0,86,0.00,,,0.04,WUHU216HW,2013-07-10 02:48:00,
2013-07-09 22:53:00,72.5,68.1,29.96,North,0,0.0,0.0,86,0.00,,,0.04,WUHU216HW,2013-07-10 02:53:00,
2013-07-09 22:58:00,72.4,68.0,29.96,North,0,0.0,0.0,86,0.00,,,0.04,WUHU216HW,2013-07-10 02:58:00,
2013-07-09 23:03:00,72.2,67.8,29.96,North,0,0.0,0.0,86,0.00,,,0.04,WUHU216HW,2013-07-10 03:03:00,
2013-07-09 23:08:00,72.2,67.8,29.96,North,0,0.0,0.0,86,0.00,,,0.04,WUHU216HW,2013-07-10 03:08:00,
2013-07-09 23:13:00,72.2,68.1,29.95,North,0,0.0,0.0,87,0.00,,,0.04,WUHU216HW,2013-07-10 03:13:00,
2013-07-09 23:18:00,72.2,68.1,29.95,North,0,0.0,0.0,87,0.00,,,0.04,WUHU216HW,2013-07-10 03:18:00,
2013-07-09 23:23:00,72.2,67.8,29.95,North,0,0.0,0.0,86,0.00,,,0.04,WUHU216HW,2013-07-10 03:23:00,
2013-07-09 23:28:00,72.2,68.1,29.95,North,0,0.0,0.0,87,0.00,,,0.04,WUHU216HW,2013-07-10 03:28:00,
2013-07-09 23:33:00,72.2,68.1,29.95,North,0,0.0,0.0,87,0.00,,,0.04,WUHU216HW,2013-07-10 03:33:00,
2013-07-09 23:38:00,72.0,68.2,29.95,North,0,0.0,0.0,88,0.00,,,0.04,WUHU216HW,2013-07-10 03:38:00,
2013-07-09 23:43:00,72.0,68.2,29.95,North,0,0.0,0.0,88,0.00,,,0.04,WUHU216HW,2013-07-10 03:43:00,
2013-07-09 23:48:00,72.0,68.2,29.95,North,0,0.0,0.0,88,0.00,,,0.04,WUHU216HW,2013-07-10 03:48:00,
2013-07-09 23:53:00,72.0,68.2,29.95,North,0,0.0,0.0,88,0.00,,,0.04,WUHU216HW,2013-07-10 03:53:00,
2013-07-09 23:58:00,71.8,68.0,29.95,North,0,0.0,0.0,88,0.00,,,0.04,WUHU216HW,2013-07-10 03:58:00,